This demonstration page uses our WeatherBlox Daily Observations layout. Learn more.

Left ArrowRight Arrow

Hourly Observations for July 19, 2021

Temp ( °F °C ) Dew Point ( °F °C ) Humidity (%) Winds ( mph kmh ) Pressure ( in mb ) Visibility ( mi km ) Precip ( " mm )
12:53 am 00:53 Clear 77 25 68 20 74 74 ENE 3 6 29.98 1015 10 16 0.00 0.00
1:53 am 01:53 Clear 76 24.4 66 18.9 72 72 E 5 7 29.99 1016 10 16 0.00 0.00
2:53 am 02:53 Clear 76 24.4 67 19.4 74 74 ESE 3 6 29.98 1015 10 16 0.00 0.00
3:53 am 03:53 Clear 76 24.4 64 17.8 67 67 ESE 7 11 29.97 1015 10 16 0.00 0.00
4:53 am 04:53 Clear 74 23.3 64 17.8 71 71 ESE 7 11 29.97 1015 10 16 0.00 0.00
5:53 am 05:53 Clear 74 23.3 63 17.2 69 69 ESE 5 7 29.98 1015 10 16 0.00 0.00
6:53 am 06:53 Clear 73 22.8 63 17.2 71 71 ESE 7 11 30.00 1016 10 16 0.00 0.00
7:53 am 07:53 Sunny 73 22.8 63 17.2 71 71 E 7 11 30.01 1016 10 16 0.00 0.00
8:53 am 08:53 Sunny 77 25 64 17.8 64 64 SE 7 11 30.02 1017 10 16 0.00 0.00
9:53 am 09:53 Sunny 80 26.7 66 18.9 62 62 SE 8 13 30.02 1017 10 16 0.00 0.00
10:53 am 10:53 Sunny 83 28.3 66 18.9 57 57 SSE 6 9 30.02 1017 10 16 0.00 0.00
11:53 am 11:53 Sunny 85 29.4 66 18.9 53 53 SW 5 7 30.03 1017 10 16 0.00 0.00
12:53 pm 12:53 Sunny 88 31.1 63 17.2 43 43 SW 5 7 30.01 1016 10 16 0.00 0.00
1:51 pm 13:51 Partly Cloudy with Nearby Thunderstorms 84 29 64 18 51 51 NE 23 37 29.95 1014 10 16 0.00 0.00
1:53 pm 13:53 Mostly Cloudy with Nearby Thunderstorms 81 27.2 66 18.9 61 61 NE 22 35 30.02 1017 10 16 0.00 0.00
2:01 pm 14:01 Mostly Cloudy with Thunderstorms 78 25.6 68 20 71 71 NNE 25 41 29.99 1016 10 16 0.00 0.00
2:18 pm 14:18 Cloudy 76 24.4 68 20 77 77 NE 16 26 30.01 1016 10 16 0.00 0.00
2:53 pm 14:53 Cloudy with Light Rain 76 24.4 70 21.1 82 82 NE 10 17 30.03 1017 6 10 0.02 0.51
3:53 pm 15:53 Sunny 82 27.8 69 20.6 65 65 NNE 7 11 29.98 1015 10 16 0.01 0.25
4:53 pm 16:53 Sunny 84 28.9 68 20 59 59 N 8 13 29.97 1015 10 16 0.00 0.00
5:53 pm 17:53 Sunny 89 31.7 65 18.3 45 45 NE 7 11 29.96 1014 10 16 0.00 0.00
6:53 pm 18:53 Sunny 88 31.1 65 18.3 46 46 NE 7 11 29.94 1014 10 16 0.00 0.00
7:53 pm 19:53 Partly Cloudy 88 31.1 65 18.3 46 46 Calm 29.94 1014 10 16 0.00 0.00
8:53 pm 20:53 Partly Cloudy 86 30 64 17.8 48 48 E 14 22 29.96 1015 10 16 0.00 0.00
9:53 pm 21:53 Clear 83 28.3 64 17.8 53 53 E 9 15 29.97 1015 10 16 0.00 0.00
10:53 pm 22:53 Cloudy 82 27.8 64 17.8 55 55 E 12 19 29.98 1015 10 16 0.00 0.00
11:53 pm 23:53 Mostly Clear 80 26.7 65 18.3 60 60 E 12 19 30.00 1016 10 16 0.00 0.00

Powered by AerisWeather